STARLINK-32625 (62154 NORAD) Tracking and Keplerian Element Data

This shows tracking and keplerian element data for the satellite.

Feedback or suggestion? Click here.




ElementValue
Catalog62154
NameSTARLINK-32625
Epoch Orbit1116
Epoch Day34.01401693
Epoch Year2025
RAAN262.2741
Inclination43.0016
Eccentricity0.0001576
Argument of Perigee252.1478
Mean Anonmoly107.9204
Mean Motion15.32098521
Decay Rate-1.767E-05
L11 62154U 24224R 25034.01401693 -.00001767 00000+0 -47133-4 0 9994
L22 62154 43.0016 262.2741 0001576 252.1478 107.9204 15.32098521 11164



Live tracking and technical data element details for STARLINK-32625 (NORAD 62154). STARLINK-32625 can be tracked NOW for your location showing map with azimuth and elevation plus other details from your city location.







IsCatalogInMostPopularTable: catalog: 62154, numindb: 20
Update: records affected: 1



GetName: 62154 STARLINK-32625

Hit Count: updated at: Sun, 18 May 2025 23:50:37 GMT